Location: Joffre
(52.3362°N, 113.5373°W)
Time: 11:25:11
(UTC+00:00)

N. Korean satellite - Pass Details

Date: 05 December 2021
Orbit: 447 x 491 km, 97.3° (Epoch: 21 January)

Event Time Altitude Azimuth Distance (km) Brightness Sun altitude
Rises 13:43:22 0° 5° (N) 2,475 10.0 -14.9°
Reaches altitude 10° 13:45:33 10° 355° (N) 1,592 8.9 -14.6°
Maximum altitude 13:48:35 30° 293° (WNW) 830 7.1 -14.1°
Drops below altitude 10° 13:51:35 10° 230° (SW) 1,575 8.9 -13.7°
Sets 13:53:44 0° 219° (SW) 2,442 9.9 -13.4°
